Regional Weather Roundup
Issued by NWS

Home | Current Version | Previous Version | Text Only | Print | Product List | Glossary Off
Versions: 1 2 3 4 5 6 7 8 9 10 11 12 13 14 15 16 17 18 19 20 21 22 23 24 25 26 27 28 29 30 31 32 33 34 35 36 37 38 39 40 41 42 43 44 45 46 47 48 49 50

000
ASUS43 KFSD 210510
RWRSD

WEATHER ROUNDUP FOR SOUTH DAKOTA
NATIONAL WEATHER SERVICE SIOUX FALLS SD
1100 PM CST SAT JAN 20 2018

NOTE: "FAIR" INDICATES FEW OR NO CLOUDS BELOW 12,000 FEET WITH NO
SIGNIFICANT WEATHER AND/OR OBSTRUCTIONS TO VISIBILITY.


SDZ001>005-009-010-012>017-210600-
NORTHWEST AND NORTH CENTRAL SOUTH DAKOTA

CITY           SKY/WX    TMP DP  RH WIND       PRES   REMARKS
BUFFALO          N/A     29  21  72 CALM      29.89S
FAITH            N/A     32  28  85 W6        29.97R WCI  26
MOBRIDGE       CLOUDY    35  28  75 NW6       29.94R
$$

SDZ012>016-024>037-041>051-057-063-072>074-210600-
SOUTHWEST AND SOUTH CENTRAL SOUTH DAKOTA

CITY           SKY/WX    TMP DP  RH WIND       PRES   REMARKS
RAPID CTY ARPT LGT SNOW  30  28  92 N7        29.98S FOG     WCI  23
PIERRE         LGT RAIN  37  32  82 N6        29.98R
CUSTER         LGT SNOW  23  19  85 NE7       29.87F FOG     WCI  15
ELLSWORTH AFB  LGT SNOW  30  30 100 N10       29.97  FOG     WCI  21
PHILIP         LGT SNOW  33  33 100 NW8       30.00S FOG     WCI  26
PINE RIDGE     LGT SNOW  31  31 100 NE5       29.93F FOG     WCI  26
SPEARFISH      FLURRIES  28  27  93 SW7       29.97S WCI  21
WINNER         CLOUDY    36  34  92 N3        29.95S
$$

SDZ004>011-016>023-039-040-210600-
NORTHEAST SOUTH DAKOTA

CITY           SKY/WX    TMP DP  RH WIND       PRES   REMARKS
ABERDEEN       CLOUDY    33  28  81 SW5       29.97R WCI  29
WATERTOWN      CLOUDY    32  30  92 N5        29.93S WCI  27
SISSETON         N/A     36  29  75 W3        29.94R
$$

SDZ017-020-022-023-036>040-048>070-210600-
SOUTHEAST SOUTH DAKOTA

CITY           SKY/WX    TMP DP  RH WIND       PRES   REMARKS
SIOUX FALLS    CLOUDY    33  30  88 N3        29.94R
HURON          CLOUDY    35  33  92 NW3       29.96R
CHAMBERLAIN    CLOUDY    38  37  99 N6        29.95F
MITCHELL       CLOUDY    35  32  88 CALM      29.96S
YANKTON        CLOUDY    32  29  88 N10       29.92R WCI  24
$$

ABBREVIATIONS USED IN REMARKS
   TC - TEMPERATURE IN CELSIUS
  WCI - WIND CHILL INDEX
   HX - HEAT INDEX
  VSB - VISIBILITY





USA.gov is the U.S. government's official web portal to all federal, state and local government web resources and services.